Location: Eschentzwiller
(47.7125°N, 7.3981°E)
Time: 01:10:17
(UTC+00:00)

Cosmos 1812 Rocket - Pass Details

Date: 27 October 2020
Orbit: 605 x 633 km, 82.5° (Epoch: 26 November)

Event Time Altitude Azimuth Distance (km) Brightness Sun altitude
Rises 18:23:47 0° 182° (S) 2,893 7.0 -21.3°
Reaches altitude 10° 18:26:01 10° 180° (S) 1,987 6.1 -21.7°
Maximum altitude 18:30:24 72° 97° (E) 654 3.4 -22.4°
Enters shadow 18:30:44 68° 60° (ENE) 669 3.4 -22.5°
Exits shadow 18:35:37 - 12° (NNE) 2,322 6.4 -23.3°
Sets 18:37:00 0° 12° (NNE) 2,891 6.9 -23.6°
